Time,TemperatureF,DewpointF,PressureIn,WindDirection,WindDirectionDegrees,WindSpeedMPH,WindSpeedGustMPH,Humidity,HourlyPrecipIn,Conditions,Clouds,dailyrainin,SoftwareType,DateUTC
2013-02-26 00:02:00,35.3,31.1,29.86,West,270,0.0,0.2,85,0.00,,,0.00,WUHU216HW,2013-02-26 05:02:00,
2013-02-26 00:07:00,35.5,31.3,29.84,SSW,203,0.0,0.9,85,0.00,,,0.00,WUHU216HW,2013-02-26 05:07:00,
2013-02-26 00:12:00,35.5,31.3,29.84,WSW,248,0.4,0.9,85,0.00,,,0.00,WUHU216HW,2013-02-26 05:12:00,
2013-02-26 00:17:00,35.3,31.4,29.84,SE,135,0.2,0.4,86,0.00,,,0.00,WUHU216HW,2013-02-26 05:17:00,
2013-02-26 00:22:00,35.5,31.6,29.83,SE,135,0.0,0.4,86,0.00,,,0.00,WUHU216HW,2013-02-26 05:22:00,
2013-02-26 00:27:00,35.6,31.8,29.83,SE,135,0.0,0.4,86,0.00,,,0.00,WUHU216HW,2013-02-26 05:27:00,
2013-02-26 00:32:00,35.6,31.8,29.83,SSE,158,0.0,0.4,86,0.00,,,0.00,WUHU216HW,2013-02-26 05:32:00,
2013-02-26 00:37:00,36.0,32.4,29.83,SW,225,0.7,0.7,87,0.00,,,0.00,WUHU216HW,2013-02-26 05:37:00,
2013-02-26 00:42:00,36.0,32.4,29.83,SSW,203,0.0,1.1,87,0.00,,,0.00,WUHU216HW,2013-02-26 05:42:00,
2013-02-26 00:47:00,36.2,32.6,29.82,SSE,158,0.2,1.1,87,0.00,,,0.00,WUHU216HW,2013-02-26 05:47:00,
2013-02-26 00:52:00,36.4,32.8,29.83,WSW,248,0.0,0.9,87,0.00,,,0.00,WUHU216HW,2013-02-26 05:52:00,
2013-02-26 00:57:00,36.4,32.8,29.83,WNW,293,0.7,0.7,87,0.00,,,0.00,WUHU216HW,2013-02-26 05:57:00,
2013-02-26 01:02:00,36.5,32.9,29.82,WSW,248,0.7,0.7,87,0.00,,,0.00,WUHU216HW,2013-02-26 06:02:00,
2013-02-26 01:07:00,36.9,33.7,29.83,South,180,0.7,0.7,88,0.00,,,0.00,WUHU216HW,2013-02-26 06:07:00,
2013-02-26 01:12:00,37.1,33.9,29.83,SW,225,0.4,0.9,88,0.00,,,0.00,WUHU216HW,2013-02-26 06:12:00,
2013-02-26 01:17:00,37.1,33.9,29.82,South,180,0.7,0.9,88,0.00,,,0.00,WUHU216HW,2013-02-26 06:17:00,
2013-02-26 01:22:00,37.4,34.5,29.81,SSW,203,0.4,0.7,89,0.00,,,0.00,WUHU216HW,2013-02-26 06:22:00,
2013-02-26 01:27:00,37.8,34.8,29.81,ESE,113,0.0,0.9,89,0.00,,,0.00,WUHU216HW,2013-02-26 06:27:00,
2013-02-26 01:32:00,38.0,35.0,29.81,SE,135,0.4,0.9,89,0.00,,,0.00,WUHU216HW,2013-02-26 06:32:00,
2013-02-26 01:37:00,38.0,35.0,29.81,West,270,0.2,2.5,89,0.00,,,0.00,WUHU216HW,2013-02-26 06:37:00,
2013-02-26 01:42:00,38.2,35.2,29.81,SSE,158,0.4,2.5,89,0.00,,,0.00,WUHU216HW,2013-02-26 06:42:00,
2013-02-26 01:47:00,38.2,35.5,29.80,SE,135,0.7,1.1,90,0.00,,,0.00,WUHU216HW,2013-02-26 06:47:00,
2013-02-26 01:52:00,38.2,35.5,29.80,SSE,158,1.1,1.1,90,0.00,,,0.00,WUHU216HW,2013-02-26 06:52:00,
2013-02-26 01:57:00,38.2,35.5,29.79,West,270,0.4,1.8,90,0.00,,,0.00,WUHU216HW,2013-02-26 06:57:00,
2013-02-26 02:02:00,38.2,35.5,29.79,SE,135,0.4,1.8,90,0.00,,,0.00,WUHU216HW,2013-02-26 07:02:00,
2013-02-26 02:07:00,38.2,35.5,29.78,SE,135,1.3,1.3,90,0.00,,,0.00,WUHU216HW,2013-02-26 07:07:00,
2013-02-26 02:12:00,38.2,35.5,29.78,SSE,158,1.6,1.6,90,0.00,,,0.00,WUHU216HW,2013-02-26 07:12:00,
2013-02-26 02:17:00,38.2,35.5,29.78,West,270,0.2,1.6,90,0.00,,,0.00,WUHU216HW,2013-02-26 07:17:00,
2013-02-26 02:22:00,38.2,35.5,29.78,WSW,248,1.1,1.1,90,0.00,,,0.00,WUHU216HW,2013-02-26 07:22:00,
2013-02-26 02:27:00,38.3,35.6,29.79,SSW,203,0.4,1.1,90,0.00,,,0.00,WUHU216HW,2013-02-26 07:27:00,
2013-02-26 02:32:00,38.2,35.5,29.78,WSW,248,0.4,0.9,90,0.00,,,0.00,WUHU216HW,2013-02-26 07:32:00,
2013-02-26 02:37:00,38.2,35.5,29.78,SE,135,1.1,1.1,90,0.00,,,0.00,WUHU216HW,2013-02-26 07:37:00,
2013-02-26 02:42:00,38.2,35.5,29.78,ENE,68,0.0,1.1,90,0.00,,,0.00,WUHU216HW,2013-02-26 07:42:00,
2013-02-26 02:47:00,38.2,35.5,29.76,NW,315,0.2,1.1,90,0.00,,,0.00,WUHU216HW,2013-02-26 07:47:00,
2013-02-26 02:52:00,38.2,35.5,29.76,SE,135,0.2,1.1,90,0.00,,,0.00,WUHU216HW,2013-02-26 07:52:00,
2013-02-26 02:57:00,38.0,35.3,29.76,West,270,0.4,0.9,90,0.00,,,0.00,WUHU216HW,2013-02-26 07:57:00,
2013-02-26 03:02:00,38.0,35.3,29.76,SSW,203,0.4,0.9,90,0.00,,,0.00,WUHU216HW,2013-02-26 08:02:00,
2013-02-26 03:07:00,38.0,35.3,29.76,SW,225,0.4,0.7,90,0.00,,,0.00,WUHU216HW,2013-02-26 08:07:00,
2013-02-26 03:12:00,38.0,35.3,29.75,SSW,203,0.4,0.7,90,0.00,,,0.00,WUHU216HW,2013-02-26 08:12:00,
2013-02-26 03:17:00,38.0,35.3,29.77,West,270,0.2,0.9,90,0.00,,,0.00,WUHU216HW,2013-02-26 08:17:00,
2013-02-26 03:22:00,38.0,35.3,29.77,SE,135,0.0,1.1,90,0.00,,,0.00,WUHU216HW,2013-02-26 08:22:00,
2013-02-26 03:27:00,37.8,35.1,29.78,SSW,203,0.4,1.1,90,0.00,,,0.00,WUHU216HW,2013-02-26 08:27:00,
2013-02-26 03:32:00,37.8,35.1,29.78,SSE,158,0.2,0.7,90,0.00,,,0.00,WUHU216HW,2013-02-26 08:32:00,
2013-02-26 03:37:00,37.8,35.1,29.78,SSE,158,0.4,1.1,90,0.00,,,0.00,WUHU216HW,2013-02-26 08:37:00,
2013-02-26 03:42:00,37.8,35.1,29.77,SE,135,0.4,1.1,90,0.00,,,0.00,WUHU216HW,2013-02-26 08:42:00,
2013-02-26 03:47:00,37.8,35.4,29.76,West,270,0.2,1.1,91,0.00,,,0.00,WUHU216HW,2013-02-26 08:47:00,
2013-02-26 03:53:00,38.0,35.3,29.77,SE,135,1.1,2.0,90,0.00,,,0.00,WUHU216HW,2013-02-26 08:53:00,
2013-02-26 03:58:00,37.8,35.4,29.76,SSW,203,0.4,2.0,91,0.00,,,0.00,WUHU216HW,2013-02-26 08:58:00,
2013-02-26 04:03:00,37.6,35.2,29.76,SSW,203,0.9,0.9,91,0.00,,,0.00,WUHU216HW,2013-02-26 09:03:00,
2013-02-26 04:08:00,37.3,34.3,29.75,SE,135,0.4,0.9,89,0.00,,,0.00,WUHU216HW,2013-02-26 09:08:00,
2013-02-26 04:13:00,37.1,34.1,29.75,WSW,248,1.3,1.3,89,0.00,,,0.00,WUHU216HW,2013-02-26 09:13:00,
2013-02-26 04:18:00,37.1,34.1,29.73,East,90,0.7,1.3,89,0.00,,,0.00,WUHU216HW,2013-02-26 09:18:00,
2013-02-26 04:23:00,36.9,34.2,29.72,SE,135,0.9,1.8,90,0.00,,,0.00,WUHU216HW,2013-02-26 09:23:00,
2013-02-26 04:28:00,36.7,34.0,29.73,WSW,248,0.0,1.8,90,0.00,,,0.00,WUHU216HW,2013-02-26 09:28:00,
2013-02-26 04:33:00,36.7,34.0,29.73,SE,135,1.1,1.1,90,0.00,,,0.00,WUHU216HW,2013-02-26 09:33:00,
2013-02-26 04:38:00,36.7,34.0,29.74,SSE,158,0.4,1.1,90,0.00,,,0.00,WUHU216HW,2013-02-26 09:38:00,
2013-02-26 04:43:00,36.7,34.0,29.74,SW,225,0.0,0.9,90,0.00,,,0.00,WUHU216HW,2013-02-26 09:43:00,
2013-02-26 04:48:00,36.7,34.0,29.73,SSW,203,0.4,0.7,90,0.00,,,0.00,WUHU216HW,2013-02-26 09:48:00,
2013-02-26 04:53:00,36.7,34.0,29.73,SE,135,0.0,0.7,90,0.00,,,0.00,WUHU216HW,2013-02-26 09:53:00,
2013-02-26 04:58:00,36.7,34.0,29.73,SE,135,0.4,1.6,90,0.00,,,0.00,WUHU216HW,2013-02-26 09:58:00,
2013-02-26 05:03:00,36.7,34.0,29.73,ESE,113,0.4,1.6,90,0.00,,,0.00,WUHU216HW,2013-02-26 10:03:00,
2013-02-26 05:08:00,36.5,33.8,29.73,SW,225,0.4,0.9,90,0.00,,,0.00,WUHU216HW,2013-02-26 10:08:00,
2013-02-26 05:13:00,36.5,33.8,29.73,South,180,0.2,0.9,90,0.00,,,0.00,WUHU216HW,2013-02-26 10:13:00,
2013-02-26 05:18:00,36.4,33.7,29.71,SSW,203,0.4,0.9,90,0.00,,,0.00,WUHU216HW,2013-02-26 10:18:00,
2013-02-26 05:23:00,36.4,33.7,29.72,SW,225,0.4,1.8,90,0.00,,,0.00,WUHU216HW,2013-02-26 10:23:00,
2013-02-26 05:28:00,36.4,33.7,29.72,WSW,248,0.7,1.8,90,0.00,,,0.00,WUHU216HW,2013-02-26 10:28:00,
2013-02-26 05:33:00,36.2,33.5,29.72,SW,225,1.1,1.3,90,0.00,,,0.00,WUHU216HW,2013-02-26 10:33:00,
2013-02-26 05:38:00,36.2,33.5,29.71,ESE,113,1.3,1.3,90,0.00,,,0.00,WUHU216HW,2013-02-26 10:38:00,
2013-02-26 05:43:00,36.2,33.5,29.71,West,270,1.8,1.8,90,0.00,,,0.00,WUHU216HW,2013-02-26 10:43:00,
2013-02-26 05:48:00,36.2,33.5,29.71,East,90,1.8,1.8,90,0.00,,,0.00,WUHU216HW,2013-02-26 10:48:00,
2013-02-26 05:53:00,36.2,33.5,29.72,SW,225,0.4,1.8,90,0.00,,,0.00,WUHU216HW,2013-02-26 10:53:00,
2013-02-26 05:58:00,36.2,33.5,29.72,SW,225,0.4,1.6,90,0.00,,,0.00,WUHU216HW,2013-02-26 10:58:00,
2013-02-26 06:03:00,36.0,33.3,29.70,SSE,158,0.7,0.9,90,0.00,,,0.00,WUHU216HW,2013-02-26 11:03:00,
2013-02-26 06:08:00,36.0,33.6,29.70,ESE,113,0.4,1.6,91,0.00,,,0.00,WUHU216HW,2013-02-26 11:08:00,
2013-02-26 06:13:00,36.2,33.8,29.70,West,270,0.9,1.6,91,0.00,,,0.00,WUHU216HW,2013-02-26 11:13:00,
2013-02-26 06:18:00,36.2,33.8,29.69,SSW,203,0.4,1.8,91,0.00,,,0.00,WUHU216HW,2013-02-26 11:18:00,
2013-02-26 06:23:00,36.2,33.8,29.69,WSW,248,0.4,1.8,91,0.00,,,0.00,WUHU216HW,2013-02-26 11:23:00,
2013-02-26 06:28:00,36.4,33.9,29.69,South,180,1.1,1.1,91,0.00,,,0.00,WUHU216HW,2013-02-26 11:28:00,
2013-02-26 06:33:00,36.4,33.9,29.69,SE,135,1.1,1.8,91,0.00,,,0.00,WUHU216HW,2013-02-26 11:33:00,
2013-02-26 06:38:00,36.5,34.1,29.69,SSW,203,0.7,1.8,91,0.00,,,0.00,WUHU216HW,2013-02-26 11:38:00,
2013-02-26 06:43:00,36.5,34.1,29.69,SE,135,1.1,2.5,91,0.00,,,0.00,WUHU216HW,2013-02-26 11:43:00,
2013-02-26 06:48:00,36.7,34.3,29.68,WSW,248,1.8,2.5,91,0.00,,,0.00,WUHU216HW,2013-02-26 11:48:00,
2013-02-26 06:53:00,36.9,34.5,29.67,SSE,158,1.3,1.8,91,0.00,,,0.00,WUHU216HW,2013-02-26 11:53:00,
2013-02-26 06:58:00,37.1,34.7,29.67,SW,225,0.4,1.8,91,0.00,,,0.00,WUHU216HW,2013-02-26 11:58:00,
2013-02-26 07:03:00,37.4,35.0,29.66,SE,135,0.7,1.8,91,0.00,,,0.00,WUHU216HW,2013-02-26 12:03:00,
2013-02-26 07:08:00,37.6,35.2,29.66,SE,135,2.0,2.0,91,0.00,,,0.00,WUHU216HW,2013-02-26 12:08:00,
2013-02-26 07:13:00,37.4,35.3,29.67,SE,135,0.0,2.0,92,0.00,,,0.00,WUHU216HW,2013-02-26 12:13:00,
2013-02-26 07:18:00,37.6,35.2,29.66,ESE,113,1.1,1.3,91,0.00,,,0.00,WUHU216HW,2013-02-26 12:18:00,
2013-02-26 07:23:00,37.6,35.2,29.66,SE,135,1.3,1.8,91,0.00,,,0.00,WUHU216HW,2013-02-26 12:23:00,
2013-02-26 07:28:00,37.4,35.0,29.66,SSW,203,0.7,1.8,91,0.00,,,0.00,WUHU216HW,2013-02-26 12:28:00,
2013-02-26 07:33:00,37.3,35.1,29.66,ENE,68,0.4,0.9,92,0.00,,,0.00,WUHU216HW,2013-02-26 12:33:00,
2013-02-26 07:38:00,37.1,34.9,29.67,SSE,158,1.1,1.8,92,0.00,,,0.00,WUHU216HW,2013-02-26 12:38:00,
2013-02-26 07:43:00,37.3,35.1,29.66,ESE,113,0.2,1.8,92,0.00,,,0.00,WUHU216HW,2013-02-26 12:43:00,
2013-02-26 07:48:00,37.3,35.1,29.66,ENE,68,1.6,1.6,92,0.00,,,0.00,WUHU216HW,2013-02-26 12:48:00,
2013-02-26 07:53:00,37.3,35.1,29.66,South,180,1.3,2.0,92,0.00,,,0.00,WUHU216HW,2013-02-26 12:53:00,
2013-02-26 07:58:00,37.3,35.1,29.66,NNW,338,0.4,2.0,92,0.00,,,0.00,WUHU216HW,2013-02-26 12:58:00,
2013-02-26 08:03:00,37.1,34.9,29.66,SSW,203,0.7,2.0,92,0.00,,,0.00,WUHU216HW,2013-02-26 13:03:00,
2013-02-26 08:08:00,37.3,35.1,29.66,SSW,203,1.1,1.1,92,0.00,,,0.00,WUHU216HW,2013-02-26 13:08:00,
2013-02-26 08:13:00,37.3,35.1,29.66,SSW,203,0.4,1.1,92,0.00,,,0.00,WUHU216HW,2013-02-26 13:13:00,
2013-02-26 08:18:00,37.3,35.1,29.66,SSE,158,0.4,1.1,92,0.00,,,0.00,WUHU216HW,2013-02-26 13:18:00,
2013-02-26 08:23:00,37.1,34.9,29.65,SSW,203,0.4,1.3,92,0.00,,,0.00,WUHU216HW,2013-02-26 13:23:00,
2013-02-26 08:28:00,37.1,34.9,29.65,SSW,203,1.1,1.6,92,0.00,,,0.00,WUHU216HW,2013-02-26 13:28:00,
2013-02-26 08:33:00,36.9,34.7,29.65,SE,135,1.8,1.8,92,0.00,,,0.00,WUHU216HW,2013-02-26 13:33:00,
2013-02-26 08:38:00,36.9,34.7,29.64,ESE,113,0.9,1.8,92,0.00,,,0.00,WUHU216HW,2013-02-26 13:38:00,
2013-02-26 08:43:00,37.1,34.9,29.65,SSE,158,1.1,2.0,92,0.00,,,0.00,WUHU216HW,2013-02-26 13:43:00,
2013-02-26 08:48:00,37.1,34.9,29.64,WNW,293,0.9,2.0,92,0.00,,,0.00,WUHU216HW,2013-02-26 13:48:00,
2013-02-26 08:53:00,37.1,34.9,29.64,West,270,0.0,1.1,92,0.00,,,0.00,WUHU216HW,2013-02-26 13:53:00,
2013-02-26 08:58:00,37.1,34.9,29.64,SSW,203,0.2,1.3,92,0.00,,,0.00,WUHU216HW,2013-02-26 13:58:00,
2013-02-26 09:03:00,37.1,34.9,29.64,West,270,1.8,2.7,92,0.00,,,0.00,WUHU216HW,2013-02-26 14:03:00,
2013-02-26 09:08:00,37.1,34.9,29.65,SW,225,0.9,2.7,92,0.00,,,0.00,WUHU216HW,2013-02-26 14:08:00,
2013-02-26 09:13:00,37.1,34.9,29.67,West,270,0.9,2.2,92,0.00,,,0.00,WUHU216HW,2013-02-26 14:13:00,
2013-02-26 09:18:00,37.1,34.9,29.66,SSW,203,1.1,1.8,92,0.00,,,0.00,WUHU216HW,2013-02-26 14:18:00,
2013-02-26 09:23:00,37.1,34.9,29.66,SE,135,0.0,1.1,92,0.00,,,0.00,WUHU216HW,2013-02-26 14:23:00,
2013-02-26 09:28:00,37.3,35.1,29.65,WSW,248,0.4,0.9,92,0.00,,,0.00,WUHU216HW,2013-02-26 14:28:00,
2013-02-26 09:33:00,37.3,35.1,29.64,SE,135,0.4,1.1,92,0.00,,,0.00,WUHU216HW,2013-02-26 14:33:00,
2013-02-26 09:38:00,37.1,34.9,29.63,SSE,158,2.5,2.5,92,0.00,,,0.00,WUHU216HW,2013-02-26 14:38:00,
2013-02-26 09:43:00,37.1,34.9,29.63,SE,135,1.8,2.5,92,0.00,,,0.00,WUHU216HW,2013-02-26 14:43:00,
2013-02-26 09:48:00,37.1,34.9,29.62,SE,135,0.2,1.8,92,0.00,,,0.00,WUHU216HW,2013-02-26 14:48:00,
2013-02-26 09:53:00,36.9,34.7,29.61,SE,135,0.4,2.5,92,0.00,,,0.00,WUHU216HW,2013-02-26 14:53:00,
2013-02-26 09:58:00,37.1,34.9,29.61,NW,315,0.2,2.5,92,0.00,,,0.00,WUHU216HW,2013-02-26 14:58:00,
2013-02-26 10:03:00,37.1,34.9,29.61,SW,225,0.4,2.0,92,0.00,,,0.00,WUHU216HW,2013-02-26 15:03:00,
2013-02-26 10:08:00,36.9,34.7,29.60,SE,135,0.9,1.8,92,0.00,,,0.00,WUHU216HW,2013-02-26 15:08:00,
2013-02-26 10:13:00,36.9,34.7,29.61,ESE,113,0.7,1.6,92,0.00,,,0.00,WUHU216HW,2013-02-26 15:13:00,
2013-02-26 10:18:00,37.1,34.9,29.59,WSW,248,0.4,1.6,92,0.00,,,0.00,WUHU216HW,2013-02-26 15:18:00,
2013-02-26 10:23:00,37.1,34.9,29.59,SW,225,1.1,1.8,92,0.00,,,0.00,WUHU216HW,2013-02-26 15:23:00,
2013-02-26 10:28:00,37.1,34.9,29.58,West,270,0.7,2.0,92,0.00,,,0.00,WUHU216HW,2013-02-26 15:28:00,
2013-02-26 10:33:00,37.1,34.9,29.59,WSW,248,0.4,2.9,92,0.00,,,0.00,WUHU216HW,2013-02-26 15:33:00,
2013-02-26 10:38:00,37.1,34.9,29.58,South,180,0.2,2.9,92,0.00,,,0.00,WUHU216HW,2013-02-26 15:38:00,
2013-02-26 10:43:00,37.3,35.1,29.59,WSW,248,1.1,1.1,92,0.00,,,0.00,WUHU216HW,2013-02-26 15:43:00,
2013-02-26 10:48:00,37.1,34.9,29.59,South,180,0.0,1.1,92,0.00,,,0.00,WUHU216HW,2013-02-26 15:48:00,
2013-02-26 10:53:00,37.1,34.9,29.60,SSW,203,0.0,1.1,92,0.00,,,0.00,WUHU216HW,2013-02-26 15:53:00,
2013-02-26 10:58:00,37.1,34.9,29.59,SSE,158,1.1,1.1,92,0.00,,,0.00,WUHU216HW,2013-02-26 15:58:00,
2013-02-26 11:03:00,37.1,34.9,29.59,South,180,0.0,1.1,92,0.00,,,0.00,WUHU216HW,2013-02-26 16:03:00,
2013-02-26 11:08:00,37.1,34.9,29.57,South,180,0.7,1.3,92,0.00,,,0.00,WUHU216HW,2013-02-26 16:08:00,
2013-02-26 11:13:00,37.1,34.9,29.57,SSE,158,0.7,1.3,92,0.00,,,0.00,WUHU216HW,2013-02-26 16:13:00,
2013-02-26 11:18:00,37.3,35.1,29.60,SE,135,0.2,1.6,92,0.00,,,0.00,WUHU216HW,2013-02-26 16:18:00,
2013-02-26 11:23:00,37.4,35.3,29.59,WSW,248,1.8,1.8,92,0.00,,,0.00,WUHU216HW,2013-02-26 16:23:00,
2013-02-26 11:28:00,37.8,35.9,29.58,SE,135,0.0,2.0,93,0.00,,,0.00,WUHU216HW,2013-02-26 16:28:00,
2013-02-26 11:33:00,37.8,35.9,29.58,SE,135,1.3,2.0,93,0.00,,,0.00,WUHU216HW,2013-02-26 16:33:00,
2013-02-26 11:38:00,38.2,36.3,29.60,SSE,158,0.2,1.3,93,0.00,,,0.00,WUHU216HW,2013-02-26 16:38:00,
2013-02-26 11:43:00,38.2,36.3,29.58,SE,135,0.4,0.4,93,0.00,,,0.00,WUHU216HW,2013-02-26 16:43:00,
2013-02-26 11:48:00,38.3,36.2,29.61,West,270,0.4,0.7,92,0.00,,,0.00,WUHU216HW,2013-02-26 16:48:00,
2013-02-26 11:53:00,38.5,36.6,29.61,SSW,203,0.9,1.1,93,0.00,,,0.00,WUHU216HW,2013-02-26 16:53:00,
2013-02-26 11:58:00,38.5,36.6,29.61,West,270,0.7,1.1,93,0.00,,,0.00,WUHU216HW,2013-02-26 16:58:00,
2013-02-26 12:03:00,38.3,36.5,29.59,SW,225,0.2,0.7,93,0.00,,,0.00,WUHU216HW,2013-02-26 17:03:00,
2013-02-26 12:08:00,38.5,36.6,29.58,SW,225,0.4,0.9,93,0.00,,,0.00,WUHU216HW,2013-02-26 17:08:00,
2013-02-26 12:13:00,38.7,36.8,29.59,SE,135,0.0,0.9,93,0.00,,,0.00,WUHU216HW,2013-02-26 17:13:00,
2013-02-26 12:18:00,39.2,37.6,29.59,SW,225,0.0,0.9,94,0.00,,,0.00,WUHU216HW,2013-02-26 17:18:00,
2013-02-26 12:23:00,39.2,37.6,29.59,SW,225,0.7,1.1,94,0.00,,,0.00,WUHU216HW,2013-02-26 17:23:00,
2013-02-26 12:28:00,39.4,37.8,29.59,SE,135,1.1,2.0,94,0.00,,,0.00,WUHU216HW,2013-02-26 17:28:00,
2013-02-26 12:33:00,39.4,37.8,29.58,SW,225,0.4,2.0,94,0.00,,,0.00,WUHU216HW,2013-02-26 17:33:00,
2013-02-26 12:38:00,39.6,37.7,29.59,NW,315,0.2,1.1,93,0.00,,,0.00,WUHU216HW,2013-02-26 17:38:00,
2013-02-26 12:43:00,39.6,38.0,29.58,SSW,203,0.9,1.1,94,0.00,,,0.00,WUHU216HW,2013-02-26 17:43:00,
2013-02-26 12:48:00,39.6,37.7,29.58,SSW,203,0.2,1.8,93,0.00,,,0.00,WUHU216HW,2013-02-26 17:48:00,
2013-02-26 12:53:00,39.8,38.2,29.58,ESE,113,0.0,1.8,94,0.00,,,0.00,WUHU216HW,2013-02-26 17:53:00,
2013-02-26 12:58:00,39.8,38.2,29.58,SSE,158,1.1,2.5,94,0.00,,,0.00,WUHU216HW,2013-02-26 17:58:00,
2013-02-26 13:03:00,40.0,38.3,29.57,ESE,113,1.8,2.5,94,0.00,,,0.00,WUHU216HW,2013-02-26 18:03:00,
2013-02-26 13:08:00,40.0,38.3,29.57,ESE,113,0.7,1.8,94,0.00,,,0.00,WUHU216HW,2013-02-26 18:08:00,
2013-02-26 13:13:00,40.0,38.3,29.57,SE,135,0.4,1.6,94,0.00,,,0.00,WUHU216HW,2013-02-26 18:13:00,
2013-02-26 13:18:00,40.0,38.1,29.57,SE,135,0.7,1.6,93,0.00,,,0.00,WUHU216HW,2013-02-26 18:18:00,
2013-02-26 13:23:00,40.0,38.3,29.57,SE,135,0.0,1.6,94,0.00,,,0.00,WUHU216HW,2013-02-26 18:23:00,
2013-02-26 13:28:00,40.1,38.5,29.56,ESE,113,1.6,1.6,94,0.00,,,0.00,WUHU216HW,2013-02-26 18:28:00,
2013-02-26 13:33:00,40.1,38.3,29.55,SE,135,0.7,1.6,93,0.00,,,0.00,WUHU216HW,2013-02-26 18:33:00,
2013-02-26 13:38:00,40.5,38.6,29.55,WSW,248,0.7,1.1,93,0.00,,,0.00,WUHU216HW,2013-02-26 18:38:00,
2013-02-26 13:43:00,40.7,38.8,29.55,SE,135,0.4,1.1,93,0.00,,,0.00,WUHU216HW,2013-02-26 18:43:00,
2013-02-26 13:48:00,40.7,38.8,29.54,NNE,23,0.9,1.1,93,0.00,,,0.00,WUHU216HW,2013-02-26 18:48:00,
2013-02-26 13:53:00,41.0,39.2,29.54,SSW,203,0.4,3.1,93,0.00,,,0.00,WUHU216HW,2013-02-26 18:53:00,
2013-02-26 13:58:00,41.0,39.2,29.55,NNW,338,0.2,3.1,93,0.00,,,0.00,WUHU216HW,2013-02-26 18:58:00,
2013-02-26 14:03:00,41.2,39.3,29.54,SE,135,0.0,1.1,93,0.00,,,0.00,WUHU216HW,2013-02-26 19:03:00,
2013-02-26 14:08:00,41.2,39.3,29.54,West,270,0.9,0.9,93,0.00,,,0.00,WUHU216HW,2013-02-26 19:08:00,
2013-02-26 14:13:00,41.2,39.3,29.55,SE,135,0.9,0.9,93,0.00,,,0.00,WUHU216HW,2013-02-26 19:13:00,
2013-02-26 14:18:00,41.4,39.5,29.54,South,180,1.1,1.8,93,0.00,,,0.00,WUHU216HW,2013-02-26 19:18:00,
2013-02-26 14:23:00,41.4,39.5,29.54,SE,135,2.2,2.2,93,0.00,,,0.00,WUHU216HW,2013-02-26 19:23:00,
2013-02-26 14:28:00,41.4,39.5,29.55,SE,135,0.2,2.2,93,0.00,,,0.00,WUHU216HW,2013-02-26 19:28:00,
2013-02-26 14:33:00,41.2,39.3,29.54,SE,135,1.6,1.8,93,0.00,,,0.00,WUHU216HW,2013-02-26 19:33:00,
2013-02-26 14:38:00,41.4,39.5,29.54,SE,135,0.0,1.6,93,0.00,,,0.00,WUHU216HW,2013-02-26 19:38:00,
2013-02-26 14:43:00,41.6,39.7,29.55,ESE,113,0.7,1.8,93,0.00,,,0.00,WUHU216HW,2013-02-26 19:43:00,
2013-02-26 14:48:00,41.8,39.9,29.54,SE,135,1.1,1.8,93,0.00,,,0.00,WUHU216HW,2013-02-26 19:48:00,
2013-02-26 14:53:00,41.6,39.7,29.54,SE,135,2.2,2.2,93,0.00,,,0.00,WUHU216HW,2013-02-26 19:53:00,
2013-02-26 14:58:00,41.8,39.9,29.54,SE,135,1.8,2.2,93,0.00,,,0.00,WUHU216HW,2013-02-26 19:58:00,
2013-02-26 15:03:00,41.8,39.9,29.54,West,270,0.2,1.8,93,0.00,,,0.00,WUHU216HW,2013-02-26 20:03:00,
2013-02-26 15:08:00,41.8,39.9,29.54,SE,135,1.8,2.7,93,0.00,,,0.00,WUHU216HW,2013-02-26 20:08:00,
2013-02-26 15:13:00,41.6,39.7,29.55,WNW,293,0.4,3.1,93,0.00,,,0.00,WUHU216HW,2013-02-26 20:13:00,
2013-02-26 15:18:00,41.4,39.8,29.54,ESE,113,0.2,3.1,94,0.00,,,0.00,WUHU216HW,2013-02-26 20:18:00,
2013-02-26 15:23:00,41.4,39.8,29.54,ESE,113,1.6,1.6,94,0.00,,,0.00,WUHU216HW,2013-02-26 20:23:00,
2013-02-26 15:28:00,41.6,40.0,29.54,WNW,293,0.9,1.6,94,0.00,,,0.00,WUHU216HW,2013-02-26 20:28:00,
2013-02-26 15:33:00,41.6,39.7,29.54,ESE,113,0.4,2.0,93,0.00,,,0.00,WUHU216HW,2013-02-26 20:33:00,
2013-02-26 15:38:00,41.4,39.8,29.54,NW,315,1.6,2.0,94,0.00,,,0.00,WUHU216HW,2013-02-26 20:38:00,
2013-02-26 15:43:00,41.4,39.8,29.53,SE,135,1.1,2.0,94,0.00,,,0.00,WUHU216HW,2013-02-26 20:43:00,
2013-02-26 15:48:00,41.4,39.8,29.53,NE,45,0.2,2.0,94,0.00,,,0.00,WUHU216HW,2013-02-26 20:48:00,
2013-02-26 15:53:00,41.4,39.8,29.53,SE,135,2.7,2.7,94,0.00,,,0.00,WUHU216HW,2013-02-26 20:53:00,
2013-02-26 15:58:00,41.6,40.0,29.53,East,90,0.4,2.7,94,0.00,,,0.00,WUHU216HW,2013-02-26 20:58:00,
2013-02-26 16:03:00,41.4,39.5,29.53,NW,315,0.2,1.8,93,0.00,,,0.00,WUHU216HW,2013-02-26 21:03:00,
2013-02-26 16:08:00,41.2,39.3,29.53,SW,225,0.0,1.8,93,0.00,,,0.00,WUHU216HW,2013-02-26 21:08:00,
2013-02-26 16:13:00,41.0,39.2,29.53,ESE,113,0.4,1.1,93,0.00,,,0.00,WUHU216HW,2013-02-26 21:13:00,
2013-02-26 16:18:00,40.7,38.8,29.53,WNW,293,1.1,2.2,93,0.00,,,0.00,WUHU216HW,2013-02-26 21:18:00,
2013-02-26 16:23:00,40.3,38.4,29.53,East,90,0.0,2.2,93,0.00,,,0.00,WUHU216HW,2013-02-26 21:23:00,
2013-02-26 16:28:00,40.1,38.3,29.54,West,270,0.4,1.3,93,0.00,,,0.00,WUHU216HW,2013-02-26 21:28:00,
2013-02-26 16:33:00,40.0,38.1,29.54,SW,225,1.8,1.8,93,0.00,,,0.00,WUHU216HW,2013-02-26 21:33:00,
2013-02-26 16:38:00,39.8,37.9,29.53,SSE,158,0.7,1.8,93,0.00,,,0.00,WUHU216HW,2013-02-26 21:38:00,
2013-02-26 16:43:00,39.8,37.9,29.53,SW,225,1.1,1.3,93,0.00,,,0.00,WUHU216HW,2013-02-26 21:43:00,
2013-02-26 16:48:00,39.6,37.7,29.53,SSE,158,1.1,1.8,93,0.00,,,0.00,WUHU216HW,2013-02-26 21:48:00,
2013-02-26 16:53:00,39.4,37.5,29.54,WNW,293,0.0,1.8,93,0.00,,,0.00,WUHU216HW,2013-02-26 21:53:00,
2013-02-26 16:58:00,39.2,37.4,29.53,WNW,293,0.2,1.6,93,0.00,,,0.00,WUHU216HW,2013-02-26 21:58:00,
2013-02-26 17:03:00,39.2,37.4,29.53,South,180,0.4,1.6,93,0.00,,,0.00,WUHU216HW,2013-02-26 22:03:00,
2013-02-26 17:08:00,39.2,37.4,29.54,SE,135,0.0,0.9,93,0.00,,,0.00,WUHU216HW,2013-02-26 22:08:00,
2013-02-26 17:13:00,39.2,37.4,29.53,WNW,293,0.2,1.3,93,0.00,,,0.00,WUHU216HW,2013-02-26 22:13:00,
2013-02-26 17:18:00,39.2,37.4,29.53,North,0,0.4,1.3,93,0.00,,,0.00,WUHU216HW,2013-02-26 22:18:00,
2013-02-26 17:23:00,39.2,37.4,29.53,ENE,68,0.0,0.7,93,0.00,,,0.00,WUHU216HW,2013-02-26 22:23:00,
2013-02-26 17:29:00,39.2,37.4,29.54,NW,315,0.0,1.1,93,0.00,,,0.00,WUHU216HW,2013-02-26 22:29:00,
2013-02-26 17:34:00,39.2,37.4,29.55,SSW,203,0.2,1.1,93,0.00,,,0.00,WUHU216HW,2013-02-26 22:34:00,
2013-02-26 17:39:00,39.2,37.4,29.55,ESE,113,0.0,0.4,93,0.00,,,0.00,WUHU216HW,2013-02-26 22:39:00,
2013-02-26 17:44:00,39.2,37.4,29.54,NNW,338,0.2,0.2,93,0.00,,,0.00,WUHU216HW,2013-02-26 22:44:00,
2013-02-26 17:49:00,39.1,37.2,29.55,NW,315,0.0,0.4,93,0.00,,,0.00,WUHU216HW,2013-02-26 22:49:00,
2013-02-26 17:54:00,39.1,37.2,29.55,NNW,338,0.0,0.9,93,0.00,,,0.00,WUHU216HW,2013-02-26 22:54:00,
2013-02-26 17:59:00,39.1,37.2,29.55,NW,315,0.0,0.9,93,0.00,,,0.00,WUHU216HW,2013-02-26 22:59:00,
2013-02-26 18:04:00,39.1,37.2,29.56,West,270,0.2,1.8,93,0.00,,,0.00,WUHU216HW,2013-02-26 23:04:00,
2013-02-26 18:09:00,39.1,37.2,29.56,NNW,338,0.0,1.8,93,0.00,,,0.00,WUHU216HW,2013-02-26 23:09:00,
2013-02-26 18:14:00,39.1,37.2,29.55,NE,45,0.0,0.4,93,0.00,,,0.00,WUHU216HW,2013-02-26 23:14:00,
2013-02-26 18:19:00,39.1,37.2,29.56,NW,315,0.0,0.2,93,0.00,,,0.00,WUHU216HW,2013-02-26 23:19:00,
2013-02-26 18:24:00,39.2,37.4,29.57,WSW,248,0.0,0.2,93,0.00,,,0.00,WUHU216HW,2013-02-26 23:24:00,
2013-02-26 18:29:00,39.2,37.4,29.57,North,0,0.4,0.4,93,0.00,,,0.00,WUHU216HW,2013-02-26 23:29:00,
2013-02-26 18:34:00,39.1,37.2,29.57,West,270,0.0,0.4,93,0.00,,,0.00,WUHU216HW,2013-02-26 23:34:00,
2013-02-26 18:39:00,39.1,37.2,29.56,NE,45,0.2,0.4,93,0.00,,,0.00,WUHU216HW,2013-02-26 23:39:00,
2013-02-26 18:44:00,39.1,37.2,29.57,West,270,0.7,2.0,93,0.00,,,0.00,WUHU216HW,2013-02-26 23:44:00,
2013-02-26 18:49:00,39.1,37.2,29.57,North,0,0.4,2.0,93,0.00,,,0.00,WUHU216HW,2013-02-26 23:49:00,
2013-02-26 18:54:00,39.1,37.2,29.57,WNW,293,0.9,1.6,93,0.00,,,0.00,WUHU216HW,2013-02-26 23:54:00,
2013-02-26 18:59:00,39.1,37.2,29.58,NNE,23,0.0,1.6,93,0.00,,,0.00,WUHU216HW,2013-02-26 23:59:00,
2013-02-26 19:04:00,38.9,36.7,29.58,SE,135,0.2,2.5,92,0.00,,,0.00,WUHU216HW,2013-02-27 00:04:00,
2013-02-26 19:09:00,38.9,36.7,29.58,SE,135,0.7,2.5,92,0.00,,,0.00,WUHU216HW,2013-02-27 00:09:00,
2013-02-26 19:14:00,38.7,36.5,29.58,SSW,203,0.4,1.8,92,0.00,,,0.00,WUHU216HW,2013-02-27 00:14:00,
2013-02-26 19:19:00,38.7,36.5,29.58,WNW,293,0.2,1.8,92,0.00,,,0.00,WUHU216HW,2013-02-27 00:19:00,
2013-02-26 19:24:00,38.5,36.4,29.58,SSE,158,0.2,1.6,92,0.00,,,0.00,WUHU216HW,2013-02-27 00:24:00,
2013-02-26 19:29:00,38.5,36.4,29.57,SE,135,0.4,1.1,92,0.00,,,0.00,WUHU216HW,2013-02-27 00:29:00,
2013-02-26 19:34:00,38.5,36.4,29.58,SW,225,1.1,1.1,92,0.00,,,0.00,WUHU216HW,2013-02-27 00:34:00,
2013-02-26 19:39:00,38.5,35.8,29.58,SW,225,1.8,1.8,90,0.00,,,0.00,WUHU216HW,2013-02-27 00:39:00,
2013-02-26 19:44:00,38.7,36.0,29.58,ENE,68,1.8,4.7,90,0.00,,,0.00,WUHU216HW,2013-02-27 00:44:00,
2013-02-26 19:49:00,38.7,35.5,29.59,WNW,293,1.3,4.7,88,0.00,,,0.00,WUHU216HW,2013-02-27 00:49:00,
2013-02-26 19:54:00,38.9,35.3,29.59,WNW,293,0.2,2.5,87,0.00,,,0.00,WUHU216HW,2013-02-27 00:54:00,
2013-02-26 19:59:00,39.1,34.9,29.58,WNW,293,0.4,2.5,85,0.00,,,0.00,WUHU216HW,2013-02-27 00:59:00,
2013-02-26 20:04:00,38.9,35.0,29.59,NNE,23,0.0,2.5,86,0.00,,,0.00,WUHU216HW,2013-02-27 01:04:00,
2013-02-26 20:09:00,38.9,35.0,29.58,South,180,0.2,1.1,86,0.00,,,0.00,WUHU216HW,2013-02-27 01:09:00,
2013-02-26 20:14:00,38.9,34.5,29.60,WSW,248,0.9,2.9,84,0.00,,,0.00,WUHU216HW,2013-02-27 01:14:00,
2013-02-26 20:19:00,38.9,34.2,29.59,North,0,0.4,4.3,83,0.00,,,0.00,WUHU216HW,2013-02-27 01:19:00,
2013-02-26 20:24:00,38.9,34.2,29.59,SE,135,0.9,4.3,83,0.00,,,0.00,WUHU216HW,2013-02-27 01:24:00,
2013-02-26 20:29:00,39.1,34.0,29.60,ESE,113,0.4,3.1,82,0.00,,,0.00,WUHU216HW,2013-02-27 01:29:00,
2013-02-26 20:34:00,38.9,33.8,29.60,SSW,203,1.1,1.8,82,0.00,,,0.00,WUHU216HW,2013-02-27 01:34:00,
2013-02-26 20:39:00,38.9,33.8,29.59,North,0,1.6,1.8,82,0.00,,,0.00,WUHU216HW,2013-02-27 01:39:00,
2013-02-26 20:44:00,38.9,33.8,29.58,WNW,293,0.4,1.6,82,0.00,,,0.00,WUHU216HW,2013-02-27 01:44:00,
2013-02-26 20:49:00,38.7,33.7,29.58,WSW,248,0.7,2.0,82,0.00,,,0.00,WUHU216HW,2013-02-27 01:49:00,
2013-02-26 20:54:00,38.5,33.5,29.58,East,90,0.2,2.0,82,0.00,,,0.00,WUHU216HW,2013-02-27 01:54:00,
2013-02-26 20:59:00,38.5,32.9,29.59,WNW,293,0.0,3.4,80,0.00,,,0.00,WUHU216HW,2013-02-27 01:59:00,
2013-02-26 21:04:00,38.5,32.9,29.59,West,270,0.9,3.4,80,0.00,,,0.00,WUHU216HW,2013-02-27 02:04:00,
2013-02-26 21:09:00,38.5,32.9,29.60,North,0,0.4,1.1,80,0.00,,,0.00,WUHU216HW,2013-02-27 02:09:00,
2013-02-26 21:14:00,38.2,32.6,29.59,WNW,293,3.1,3.1,80,0.00,,,0.00,WUHU216HW,2013-02-27 02:14:00,
2013-02-26 21:19:00,38.2,32.9,29.59,WNW,293,1.1,3.1,81,0.00,,,0.00,WUHU216HW,2013-02-27 02:19:00,
2013-02-26 21:24:00,38.2,32.9,29.59,SSE,158,0.4,1.1,81,0.00,,,0.00,WUHU216HW,2013-02-27 02:24:00,
2013-02-26 21:29:00,38.0,32.4,29.59,NE,45,0.4,1.1,80,0.00,,,0.00,WUHU216HW,2013-02-27 02:29:00,
2013-02-26 21:34:00,38.0,32.4,29.59,South,180,1.1,1.1,80,0.00,,,0.00,WUHU216HW,2013-02-27 02:34:00,
2013-02-26 21:39:00,37.8,32.5,29.58,WSW,248,0.2,1.6,81,0.00,,,0.00,WUHU216HW,2013-02-27 02:39:00,
2013-02-26 21:44:00,37.6,32.0,29.58,SE,135,0.9,1.6,80,0.00,,,0.00,WUHU216HW,2013-02-27 02:44:00,
2013-02-26 21:49:00,37.6,32.3,29.58,South,180,0.0,0.9,81,0.00,,,0.00,WUHU216HW,2013-02-27 02:49:00,
2013-02-26 21:54:00,37.4,31.9,29.58,ESE,113,0.0,0.7,80,0.00,,,0.00,WUHU216HW,2013-02-27 02:54:00,
2013-02-26 21:59:00,37.3,32.0,29.58,ENE,68,0.0,0.7,81,0.00,,,0.00,WUHU216HW,2013-02-27 02:59:00,
2013-02-26 22:04:00,37.1,31.8,29.59,ENE,68,0.0,0.4,81,0.00,,,0.00,WUHU216HW,2013-02-27 03:04:00,
2013-02-26 22:09:00,36.9,31.6,29.59,SSW,203,0.4,0.7,81,0.00,,,0.00,WUHU216HW,2013-02-27 03:09:00,
2013-02-26 22:14:00,36.9,31.6,29.59,SSW,203,0.0,0.7,81,0.00,,,0.00,WUHU216HW,2013-02-27 03:14:00,
2013-02-26 22:20:00,36.9,31.9,29.59,SW,225,0.0,0.2,82,0.00,,,0.00,WUHU216HW,2013-02-27 03:20:00,
2013-02-26 22:25:00,36.5,31.9,29.59,WNW,293,0.0,0.0,83,0.00,,,0.00,WUHU216HW,2013-02-27 03:25:00,
2013-02-26 22:30:00,36.4,31.7,29.59,North,0,0.0,1.1,83,0.00,,,0.00,WUHU216HW,2013-02-27 03:30:00,
2013-02-26 22:35:00,36.4,32.0,29.59,NW,315,0.2,0.7,84,0.00,,,0.00,WUHU216HW,2013-02-27 03:35:00,
2013-02-26 22:40:00,36.5,32.1,29.60,NNW,338,0.9,0.9,84,0.00,,,0.00,WUHU216HW,2013-02-27 03:40:00,
2013-02-26 22:45:00,36.5,32.1,29.59,NNW,338,0.4,0.9,84,0.00,,,0.00,WUHU216HW,2013-02-27 03:45:00,
2013-02-26 22:50:00,36.4,32.0,29.59,North,0,0.2,0.7,84,0.00,,,0.00,WUHU216HW,2013-02-27 03:50:00,
2013-02-26 22:55:00,36.4,32.0,29.59,North,0,0.7,0.7,84,0.00,,,0.00,WUHU216HW,2013-02-27 03:55:00,
2013-02-26 23:00:00,36.0,31.6,29.60,WNW,293,0.4,0.9,84,0.00,,,0.00,WUHU216HW,2013-02-27 04:00:00,
2013-02-26 23:05:00,35.6,31.2,29.60,NNE,23,0.7,1.8,84,0.00,,,0.00,WUHU216HW,2013-02-27 04:05:00,
2013-02-26 23:10:00,35.5,31.1,29.60,NNW,338,0.4,1.8,84,0.00,,,0.00,WUHU216HW,2013-02-27 04:10:00,
2013-02-26 23:15:00,35.3,30.9,29.61,South,180,0.2,1.1,84,0.00,,,0.00,WUHU216HW,2013-02-27 04:15:00,
2013-02-26 23:20:00,35.1,30.4,29.61,North,0,0.2,0.9,83,0.00,,,0.00,WUHU216HW,2013-02-27 04:20:00,
2013-02-26 23:25:00,34.9,30.3,29.60,WNW,293,0.9,0.9,83,0.00,,,0.00,WUHU216HW,2013-02-27 04:25:00,
2013-02-26 23:30:00,34.9,29.9,29.61,NNW,338,0.0,0.9,82,0.00,,,0.00,WUHU216HW,2013-02-27 04:30:00,
2013-02-26 23:35:00,34.9,29.9,29.60,NW,315,0.0,0.9,82,0.00,,,0.00,WUHU216HW,2013-02-27 04:35:00,
2013-02-26 23:40:00,34.9,29.9,29.60,SW,225,0.2,0.7,82,0.00,,,0.00,WUHU216HW,2013-02-27 04:40:00,
2013-02-26 23:45:00,34.7,29.7,29.60,WNW,293,0.0,0.9,82,0.00,,,0.00,WUHU216HW,2013-02-27 04:45:00,
2013-02-26 23:50:00,34.7,29.7,29.60,WNW,293,0.0,0.9,82,0.00,,,0.00,WUHU216HW,2013-02-27 04:50:00,
2013-02-26 23:55:00,34.7,29.7,29.61,NW,315,1.8,1.8,82,0.00,,,0.00,WUHU216HW,2013-02-27 04:55:00,